WEATHER DATA

YESTERDAY
Time Temp. Dewp. Hum. Bar. 1h Prec. 24h Prec.
00:17 7.6 -4.8 39 1020.4 0.0000 0.0000
00:36 8.2 -5.3 36 1020.4 0.0000 0.0000
00:47 8.6 -5.3 35 1020.3 0.0000 0.0000
00:57 9 -5 35 1020.3 0.0000 0.0000
01:07 9.2 -4.5 36 1020.1 0.0000 0.0000
01:17 9.3 -4.4 36 1020.1 0.0000 0.0000
01:27 9.4 -4.3 36 1020 0.0000 0.0000
01:37 9.4 -4.7 35 1020 0.0000 0.0000
01:47 9.3 -5.1 34 1020 0.0000 0.0000
01:57 9.2 -4.8 35 1019.9 0.0000 0.0000
02:07 9 -4.7 36 1019.9 0.0000 0.0000
02:17 8.9 -4.4 37 1019.8 0.0000 0.0000
02:27 8.8 -4.5 37 1019.7 0.0000 0.0000
02:37 8.8 -4.2 38 1019.7 0.0000 0.0000
02:47 9 -4.3 37 1019.6 0.0000 0.0000
02:57 9 -4 38 1019.6 0.0000 0.0000
03:08 9 -4.3 37 1019.5 0.0000 0.0000
03:17 9.1 -4.3 37 1019.3 0.0000 0.0000
03:27 9.1 -3.6 39 1019.3 0.0000 0.0000
03:38 9 -3.4 40 1019.3 0.0000 0.0000
03:48 8.9 -3.5 40 1019.3 0.0000 0.0000
03:57 8.7 -3.4 41 1019.5 0.0000 0.0000
04:13 8.4 -3.6 41 1019.6 0.0000 0.0000
04:23 8.2 -3.2 43 1019.6 0.0000 0.0000
04:33 8.1 -2.8 45 1019.6 0.0000 0.0000
04:43 8.1 -2.8 45 1019.6 0.0000 0.0000
04:53 8.2 -2.2 47 1019.5 0.0000 0.0000
05:03 8.3 -2.1 47 1019.5 0.0000 0.0000
05:13 8.3 -1.8 48 1019.6 0.0000 0.0000
05:23 8.4 -1.7 48 1019.6 0.0000 0.0000
05:33 8.5 -1.7 48 1019.5 0.0000 0.0000
05:43 8.6 -1.6 48 1019.5 0.0000 0.0000
05:53 8.8 -1.7 47 1019.5 0.0000 0.0000
06:04 8.9 -1.6 47 1019.5 0.0000 0.0000
06:13 9.1 -1.7 46 1019.5 0.0000 0.0000
06:23 9.2 -1.9 45 1019.6 0.0000 0.0000
06:34 9.3 -1.5 46 1019.6 0.0000 0.0000
06:44 9.4 -1.4 46 1019.6 0.0000 0.0000
06:53 9.5 -1.4 46 1019.7 0.0000 0.0000
07:03 9.7 -1.2 46 1019.7 0.0000 0.0000
07:14 9.7 -1.5 45 1019.8 0.0000 0.0000
07:24 9.7 -1.5 45 1019.7 0.0000 0.0000
07:34 9.7 -1.5 45 1019.8 0.0000 0.0000
07:44 10.1 -1.4 44 1019.9 0.0000 0.0000
07:54 10.4 -1.2 44 1019.9 0.0000 0.0000
08:04 10.6 -1.3 43 1020 0.0000 0.0000
08:14 11 -1.2 42 1020 0.0000 0.0000
08:24 11.2 -1.4 41 1020.1 0.0000 0.0000
08:34 11.6 -1.4 40 1020.3 0.0000 0.0000
08:59 12 -1.3 39 1020.4 0.0000 0.0000
09:14 12.6 -1.2 38 1020.4 0.0000 0.0000
09:24 12.8 -1 38 1020.5 0.0000 0.0000
09:35 12.8 -1 38 1020.6 0.0000 0.0000
09:44 13.1 -1.1 37 1020.6 0.0000 0.0000
10:10 13.6 -0.7 37 1020.5 0.0000 0.0000
10:29 14 -0.1 38 1020.4 0.0000 0.0000
10:40 14.1 0 38 1020.4 0.0000 0.0000
11:05 14.5 0 37 1020.4 0.0000 0.0000
11:45 15.7 0.7 36 1020.1 0.0000 0.0000
12:01 16.3 0.8 35 1020 0.0000 0.0000
12:20 16.3 1.2 36 1019.8 0.0000 0.0000
12:31 16.4 1.3 36 1019.8 0.0000 0.0000
12:41 16.5 1.4 36 1019.8 0.0000 0.0000
13:06 16.7 1.2 35 1019.3 0.0000 0.0000
13:21 16.9 1.4 35 1019.1 0.0000 0.0000
13:31 16.9 1 34 1018.9 0.0000 0.0000
13:56 17.2 0.8 33 1018.6 0.0000 0.0000
14:06 17.1 1.1 34 1018.5 0.0000 0.0000
14:17 17.3 1.3 34 1018.5 0.0000 0.0000
14:26 17.1 1.1 34 1018.4 0.0000 0.0000
14:36 17.3 0.9 33 1018.3 0.0000 0.0000
14:52 17.1 1.5 35 1018.1 0.0000 0.0000
15:02 17.4 1.4 34 1018 0.0000 0.0000
15:11 17.1 1.1 34 1018 0.0000 0.0000
15:37 17.4 1.4 34 1017.7 0.0000 0.0000
15:46 17.2 1.6 35 1017.6 0.0000 0.0000
15:57 17.2 2 36 1017.6 0.0000 0.0000
16:07 17.1 1.9 36 1017.6 0.0000 0.0000
16:17 16.6 1.5 36 1017.6 0.0000 0.0000
16:27 16.3 2 38 1017.6 0.0000 0.0000
16:52 15.9 1.6 38 1017.6 0.0000 0.0000
17:08 16 1.7 38 1017.6 0.0000 0.0000
17:18 16.2 1.9 38 1017.6 0.0000 0.0000
17:27 16 1.7 38 1017.6 0.0000 0.0000
17:37 15.8 1.9 39 1017.5 0.0000 0.0000
17:48 15.4 1.5 39 1017.5 0.0000 0.0000
18:03 14.7 1.3 40 1017.5 0.0000 0.0000
18:13 14.2 1.1 41 1017.4 0.0000 0.0000
18:23 13.5 0.9 42 1017.4 0.0000 0.0000
18:33 12.9 1 44 1017.4 0.0000 0.0000
18:43 12.4 0.8 45 1017.4 0.0000 0.0000
18:53 12.1 0.2 44 1017.4 0.0000 0.0000
19:03 11.8 0.3 45 1017.3 0.0000 0.0000
19:13 11.6 -0.2 44 1017.4 0.0000 0.0000
19:23 11.4 0.5 47 1017.3 0.0000 0.0000
19:33 11.2 -0.2 45 1017.3 0.0000 0.0000
19:43 10.9 -1 43 1017.3 0.0000 0.0000
19:53 10.8 -1.1 43 1017.3 0.0000 0.0000
20:04 10.6 -1.3 43 1017.2 0.0000 0.0000
20:13 10.5 -1.1 44 1017.2 0.0000 0.0000
20:23 10.5 -0.8 45 1017.3 0.0000 0.0000
20:34 10.4 -0.6 46 1017.3 0.0000 0.0000
20:44 10.4 -0.6 46 1017.2 0.0000 0.0000
20:53 10.3 -0.7 46 1017.2 0.0000 0.0000
21:03 10.3 -0.7 46 1017 0.0000 0.0000
21:14 10.2 -0.8 46 1017 0.0000 0.0000
21:24 10.2 -0.8 46 1016.9 0.0000 0.0000
21:33 10.2 -0.5 47 1017 0.0000 0.0000
21:44 10.2 -0.5 47 1016.8 0.0000 0.0000
21:54 10.1 -0.6 47 1016.8 0.0000 0.0000
22:04 10.1 -0.4 48 1016.8 0.0000 0.0000
22:13 10 -0.4 48 1016.7 0.0000 0.0000
22:24 10 -0.4 48 1016.7 0.0000 0.0000
22:34 9.9 -0.3 49 1016.6 0.0000 0.0000
22:44 9.8 -0.3 49 1016.6 0.0000 0.0000
22:54 9.7 -0.2 50 1016.5 0.0000 0.0000
23:04 9.6 0 51 1016.5 0.0000 0.0000
23:14 9.6 0 51 1016.3 0.0000 0.0000
23:24 9.6 0.2 52 1016.2 0.0000 0.0000
23:34 9.7 0.3 52 1016.1 0.0000 0.0000
23:44 9.8 0.4 52 1016.1 0.0000 0.0000

DAY STATISTIC

2019-03-24
TEMPERATURE
AVERAGE
11.7
HIGH
17.4
15:02
LOW
7.6
00:17
PRESSURE
AVERAGE
1018.7
HIGH
1020.6
09:35
LOW
1016.1
23:34
DEWPOINT
AVERAGE
-1.0
HIGH
2.0
15:57
LOW
-5.3
00:36
HUMIDITY
AVERAGE
41
HIGH
52
23:24
LOW
33
13:56
PRECIPITATION
RAIN HOUR
0.0
RAIN DAY
0.0
TEMPERATURE (°C)
LOW
7.6
HIGH
17.4
AVERAGE
11.7
PRESSURE (hpa)
LOW
1016.1
HIGH
1020.6
AVERAGE
1018.7
DEVICE